Year,Month,Day,Hour,Minute,Value (Times are PST for temperature in C)
2011,09,22,10,34,16.30
2011,09,22,10,35,16.30
2011,09,22,10,36,16.30
2011,09,22,10,37,16.30
2011,09,22,10,38,16.20
2011,09,22,10,39,16.20
2011,09,22,10,40,16.20
2011,09,22,10,41,16.20
2011,09,22,10,42,16.20
2011,09,22,10,43,16.20
2011,09,22,10,44,16.20
2011,09,22,10,45,16.20
2011,09,22,10,46,16.20
2011,09,22,10,47,16.20
2011,09,22,10,48,16.20
2011,09,22,11,04,16.40
2011,09,22,11,05,16.40
2011,09,22,11,06,16.40
2011,09,22,11,07,16.40
2011,09,22,11,08,16.40
2011,09,22,11,09,16.40
2011,09,22,11,10,16.40
2011,09,22,11,11,16.40
2011,09,22,11,12,16.40
2011,09,22,11,13,16.40
2011,09,22,11,14,16.40
2011,09,22,11,15,16.50
2011,09,22,11,16,16.50
2011,09,22,11,17,16.40
2011,09,22,11,18,16.40
2011,09,22,11,19,16.40
2011,09,22,11,20,16.40
2011,09,22,11,21,16.40
2011,09,22,11,22,16.30
2011,09,22,11,23,16.30
2011,09,22,11,24,16.30
2011,09,22,11,25,16.30
2011,09,22,11,26,16.30
2011,09,22,11,27,16.30
2011,09,22,11,28,16.30
2011,09,22,11,29,16.40
2011,09,22,11,30,16.40
2011,09,22,11,31,16.40
2011,09,22,11,32,16.40
2011,09,22,11,33,16.40
2011,09,22,11,34,16.40
2011,09,22,11,35,16.40
2011,09,22,11,36,16.40
2011,09,22,11,37,16.40
2011,09,22,11,38,16.40
2011,09,22,11,39,16.40
2011,09,22,11,40,16.40
2011,09,22,11,41,16.40
2011,09,22,11,42,16.40
2011,09,22,11,43,16.40
2011,09,22,11,44,16.50
2011,09,22,11,45,16.60
2011,09,22,11,46,16.60
2011,09,22,11,47,16.60
2011,09,22,11,48,16.60
2011,09,22,11,49,16.70
2011,09,22,11,50,16.70
2011,09,22,11,51,16.70
2011,09,22,11,52,16.60
2011,09,22,11,53,16.60
2011,09,22,11,54,16.60
2011,09,22,11,55,16.60
2011,09,22,11,56,16.60
2011,09,22,11,57,16.60
2011,09,22,11,58,16.60
2011,09,22,11,59,16.60
2011,09,22,12,00,16.70
2011,09,22,12,01,16.70
2011,09,22,12,02,16.70
2011,09,22,12,03,16.70
2011,09,22,12,04,16.70
2011,09,22,12,05,16.70
2011,09,22,12,06,16.70
2011,09,22,12,07,16.70
2011,09,22,12,08,16.70
2011,09,22,12,09,16.70
2011,09,22,12,10,16.70
2011,09,22,12,11,16.70
2011,09,22,12,12,16.70
2011,09,22,12,13,16.70
2011,09,22,12,14,16.70
2011,09,22,12,15,16.70
2011,09,22,12,16,16.70
2011,09,22,12,17,16.70
2011,09,22,12,18,16.70
2011,09,22,12,19,16.70
2011,09,22,12,20,16.70
2011,09,22,12,21,16.80
2011,09,22,12,22,16.70
2011,09,22,12,23,16.70
2011,09,22,12,24,16.80
2011,09,22,12,25,16.80
2011,09,22,12,26,16.80
2011,09,22,12,27,16.80
2011,09,22,12,28,16.80
2011,09,22,12,29,16.80
2011,09,22,12,30,16.80
2011,09,22,12,31,16.80
2011,09,22,12,32,16.80
2011,09,22,12,33,16.80
2011,09,22,12,34,16.90
2011,09,22,12,35,16.90
2011,09,22,12,36,16.90
2011,09,22,12,37,17.00
2011,09,22,12,38,17.00
2011,09,22,12,39,17.00
2011,09,22,12,40,17.10
2011,09,22,12,41,17.10
2011,09,22,12,42,17.20
2011,09,22,12,43,17.20
2011,09,22,12,44,17.20
2011,09,22,12,45,17.20
2011,09,22,12,46,17.30
2011,09,22,12,47,17.30
2011,09,22,12,48,17.30
2011,09,22,12,49,17.30
2011,09,22,12,50,17.30
2011,09,22,12,51,17.30
2011,09,22,12,52,17.30
2011,09,22,12,53,17.30
2011,09,22,12,54,17.30
2011,09,22,12,55,17.40
2011,09,22,12,56,17.40
2011,09,22,12,57,17.40
2011,09,22,12,58,17.50
2011,09,22,12,59,17.50
2011,09,22,13,00,17.60
2011,09,22,13,01,17.70
2011,09,22,13,02,17.70
2011,09,22,13,03,17.70
2011,09,22,13,04,17.80
2011,09,22,13,05,17.80
2011,09,22,13,06,17.90
2011,09,22,13,07,17.90
2011,09,22,13,08,17.90
2011,09,22,13,09,17.90
2011,09,22,13,10,17.90
2011,09,22,13,11,18.00
2011,09,22,13,12,18.00
2011,09,22,13,13,18.00
2011,09,22,13,14,18.10
2011,09,22,13,15,18.10
2011,09,22,13,16,18.10
2011,09,22,13,17,18.20
2011,09,22,13,18,18.20
2011,09,22,13,19,18.20
2011,09,22,13,20,18.20
2011,09,22,13,21,18.20
2011,09,22,13,22,18.20
2011,09,22,13,23,18.30
2011,09,22,13,24,18.40
2011,09,22,13,25,18.50
2011,09,22,13,26,18.60
2011,09,22,13,27,18.60
2011,09,22,13,28,18.60
2011,09,22,13,29,18.60
2011,09,22,13,30,18.60
2011,09,22,13,31,18.70
2011,09,22,13,32,18.70
2011,09,22,13,33,18.80
2011,09,22,13,34,18.70
2011,09,22,13,35,18.60
2011,09,22,13,36,18.50
2011,09,22,13,37,18.30
2011,09,22,13,38,18.30
2011,09,22,13,39,18.30
2011,09,22,13,40,18.20
2011,09,22,13,41,18.00
2011,09,22,13,42,17.90
2011,09,22,13,43,17.90
2011,09,22,13,44,17.90
2011,09,22,13,45,17.80
2011,09,22,13,46,17.70
2011,09,22,13,47,17.60
2011,09,22,13,48,17.50
2011,09,22,13,49,17.50
2011,09,22,13,50,17.50
2011,09,22,13,51,17.50
2011,09,22,13,52,17.60
2011,09,22,13,53,17.60
2011,09,22,13,54,17.60
2011,09,22,13,55,17.70
2011,09,22,13,56,17.70
2011,09,22,13,57,17.70
2011,09,22,13,58,17.70
2011,09,22,13,59,17.70
2011,09,22,14,00,17.70
2011,09,22,14,01,17.80
2011,09,22,14,02,17.80
2011,09,22,14,03,17.80
2011,09,22,14,04,17.80
2011,09,22,14,05,17.80
2011,09,22,14,06,17.70
2011,09,22,14,07,17.80
2011,09,22,14,08,17.80
2011,09,22,14,09,17.80
2011,09,22,14,10,17.80
2011,09,22,14,11,17.80
2011,09,22,14,12,17.80
2011,09,22,14,13,17.80
2011,09,22,14,14,17.80
2011,09,22,14,15,17.80
2011,09,22,14,16,17.80
2011,09,22,14,17,17.70
2011,09,22,14,18,17.70
2011,09,22,14,19,17.60
2011,09,22,14,20,17.60
2011,09,22,14,21,17.50
2011,09,22,14,22,17.40
2011,09,22,14,23,17.40
2011,09,22,14,24,17.30
2011,09,22,14,25,17.30
2011,09,22,14,26,17.30
2011,09,22,14,27,17.20
2011,09,22,14,28,17.20
2011,09,22,14,29,17.10
2011,09,22,14,30,17.10
2011,09,22,14,31,17.00
2011,09,22,14,32,17.00
2011,09,22,14,33,17.00
2011,09,22,14,34,17.00
2011,09,22,14,35,17.10
2011,09,22,14,36,17.10
2011,09,22,14,37,17.10
2011,09,22,14,38,17.20
2011,09,22,14,39,17.30
2011,09,22,14,40,17.40
2011,09,22,14,41,17.50
2011,09,22,14,42,17.50
2011,09,22,14,43,17.70
2011,09,22,14,44,17.70
2011,09,22,14,45,17.80
2011,09,22,14,46,18.00
2011,09,22,14,47,18.10
2011,09,22,14,48,18.30
2011,09,22,14,49,18.30
2011,09,22,14,50,18.40
2011,09,22,14,51,18.50
2011,09,22,14,52,18.60
2011,09,22,14,53,18.60
2011,09,22,14,54,18.70
2011,09,22,14,55,18.80
2011,09,22,14,56,18.80
2011,09,22,14,57,18.80
2011,09,22,14,58,18.70
2011,09,22,14,59,18.70
2011,09,22,15,00,18.60
2011,09,22,15,01,18.50
2011,09,22,15,02,18.40
2011,09,22,15,03,18.30
2011,09,22,15,04,18.30
2011,09,22,15,05,18.40
2011,09,22,15,06,18.30
2011,09,22,15,07,18.20
2011,09,22,15,08,18.00
2011,09,22,15,09,17.90
2011,09,22,15,10,17.80
2011,09,22,15,11,17.80
2011,09,22,15,12,17.70
2011,09,22,15,13,17.70
2011,09,22,15,14,17.70
2011,09,22,15,15,17.70
2011,09,22,15,16,17.70
2011,09,22,15,17,17.70
2011,09,22,15,18,17.80
2011,09,22,15,19,17.90
2011,09,22,15,20,17.90
2011,09,22,15,21,17.90
2011,09,22,15,22,17.90
2011,09,22,15,23,17.90
2011,09,22,15,24,18.10
2011,09,22,15,25,18.10
2011,09,22,15,26,18.20
2011,09,22,15,27,18.20
2011,09,22,15,28,18.20
2011,09,22,15,29,18.10
2011,09,22,15,30,18.10
2011,09,22,15,31,18.10
2011,09,22,15,32,18.10
2011,09,22,15,33,18.10
2011,09,22,15,34,18.10
2011,09,22,15,35,18.20
2011,09,22,15,36,18.20
2011,09,22,15,37,18.20
2011,09,22,15,38,18.30
2011,09,22,15,39,18.30
2011,09,22,15,40,18.40
2011,09,22,15,41,18.40
2011,09,22,15,42,18.40
2011,09,22,15,43,18.40
2011,09,22,15,44,18.40
2011,09,22,15,45,18.40
2011,09,22,15,46,18.40
2011,09,22,15,47,18.40
2011,09,22,15,48,18.40
2011,09,22,15,49,18.40
2011,09,22,15,50,18.40
2011,09,22,15,51,18.40
2011,09,22,15,52,18.40
2011,09,22,15,53,18.50
2011,09,22,15,54,18.50
2011,09,22,15,55,18.50
2011,09,22,15,56,18.50
2011,09,22,15,57,18.50
2011,09,22,15,58,18.50
2011,09,22,15,59,18.50
2011,09,22,16,00,18.50
2011,09,22,16,01,18.50
2011,09,22,16,02,18.50
2011,09,22,16,03,18.50
2011,09,22,16,04,18.50
2011,09,22,16,05,18.40
2011,09,22,16,06,18.40
2011,09,22,16,07,18.40
2011,09,22,16,08,18.40
2011,09,22,16,09,18.40
2011,09,22,16,10,18.40
2011,09,22,16,11,18.40
2011,09,22,16,12,18.30
2011,09,22,16,13,18.30
2011,09,22,16,14,18.40
2011,09,22,16,15,18.40
2011,09,22,16,16,18.40
2011,09,22,16,17,18.50
2011,09,22,16,18,18.50
2011,09,22,16,19,18.50
2011,09,22,16,20,18.60
2011,09,22,16,21,18.60
2011,09,22,16,22,18.60
2011,09,22,16,23,18.70
2011,09,22,16,24,18.70
2011,09,22,16,25,18.80
2011,09,22,16,26,18.80
2011,09,22,16,27,18.80
2011,09,22,16,28,18.90
2011,09,22,16,29,18.90
2011,09,22,16,30,18.90
2011,09,22,16,31,18.90
2011,09,22,16,32,18.90
2011,09,22,16,33,18.90
2011,09,22,16,34,18.90
2011,09,22,16,35,18.90
2011,09,22,16,36,19.00
2011,09,22,16,37,19.10
2011,09,22,16,38,19.10
2011,09,22,16,39,19.10
2011,09,22,16,40,19.00
2011,09,22,16,41,18.90
2011,09,22,16,42,18.90
2011,09,22,16,43,18.90
2011,09,22,16,44,18.80
2011,09,22,16,45,18.80
2011,09,22,16,46,18.80
2011,09,22,16,47,18.80
2011,09,22,16,48,18.90
2011,09,22,16,49,18.90
2011,09,22,16,50,18.90
2011,09,22,16,51,18.90
2011,09,22,16,52,18.90
2011,09,22,16,53,18.90
2011,09,22,16,54,19.10
2011,09,22,16,55,19.10
2011,09,22,16,56,19.10
2011,09,22,16,57,19.10
2011,09,22,16,58,19.10
2011,09,22,16,59,19.20
2011,09,22,17,00,19.20
2011,09,22,17,01,19.30
2011,09,22,17,02,19.30
2011,09,22,17,03,19.30
2011,09,22,17,04,19.30
2011,09,22,17,05,19.40
2011,09,22,17,06,19.40
2011,09,22,17,07,19.40
2011,09,22,17,08,19.50
2011,09,22,17,09,19.50
2011,09,22,17,10,19.50
2011,09,22,17,11,19.60
2011,09,22,17,12,19.60
2011,09,22,17,13,19.60
2011,09,22,17,14,19.60
2011,09,22,17,15,19.60
2011,09,22,17,16,19.60
2011,09,22,17,17,19.60
2011,09,22,17,18,19.60
2011,09,22,17,19,19.60
2011,09,22,17,20,19.60
2011,09,22,17,21,19.60
2011,09,22,17,22,19.70
2011,09,22,17,23,19.70
2011,09,22,17,24,19.60
2011,09,22,17,25,19.60
2011,09,22,17,26,19.60
2011,09,22,17,27,19.60
2011,09,22,17,28,19.70
2011,09,22,17,29,19.70
2011,09,22,17,30,19.70
2011,09,22,17,31,19.80
2011,09,22,17,32,19.80
2011,09,22,17,33,19.80
2011,09,22,17,34,19.80
2011,09,22,17,35,19.80
2011,09,22,17,36,19.80
2011,09,22,17,37,19.80
2011,09,22,17,38,19.80
2011,09,22,17,39,19.80
2011,09,22,17,40,19.80
2011,09,22,17,41,19.80
2011,09,22,17,42,19.80
